Time,TemperatureF,DewpointF,PressureIn,WindDirection,WindDirectionDegrees,WindSpeedMPH,WindSpeedGustMPH,Humidity,HourlyPrecipIn,Conditions,Clouds,dailyrainin,SolarRadiationWatts/m^2,SoftwareType,DateUTC
2013-04-15 00:00:00,56.2,47.2,29.99,ESE,113,6.0,11.0,72,0.00,,,0.00,0,HR-IXPWINDi_r2_v1.2.,2013-04-15 04:00:00,
2013-04-15 00:05:00,56.1,47.1,29.99,ESE,115,2.0,14.0,72,0.00,,,0.00,0,HR-IXPWINDi_r2_v1.2.,2013-04-15 04:05:00,
2013-04-15 00:10:00,55.9,46.9,29.98,SE,126,2.0,15.0,72,0.00,,,0.00,0,HR-IXPWINDi_r2_v1.2.,2013-04-15 04:10:00,
2013-04-15 00:15:00,55.6,47.0,29.98,SE,128,2.0,15.0,73,0.00,,,0.00,0,HR-IXPWINDi_r2_v1.2.,2013-04-15 04:15:00,
2013-04-15 00:20:00,55.5,47.3,29.98,SSE,150,2.0,15.0,74,0.00,,,0.00,0,HR-IXPWINDi_r2_v1.2.,2013-04-15 04:20:00,
2013-04-15 00:25:00,55.3,47.5,29.98,ESE,123,6.0,14.0,75,0.00,,,0.00,0,HR-IXPWINDi_r2_v1.2.,2013-04-15 04:25:00,
2013-04-15 00:31:00,55.1,47.3,29.98,SSE,167,0.0,11.0,75,0.00,,,0.00,0,HR-IXPWINDi_r2_v1.2.,2013-04-15 04:31:00,
2013-04-15 00:36:00,55.0,47.5,29.97,WNW,283,0.0,6.0,76,0.00,,,0.00,0,HR-IXPWINDi_r2_v1.2.,2013-04-15 04:36:00,
2013-04-15 00:42:00,54.9,47.4,29.98,ESE,121,2.0,12.0,76,0.00,,,0.00,0,HR-IXPWINDi_r2_v1.2.,2013-04-15 04:42:00,
2013-04-15 00:47:00,54.9,47.8,29.97,SSE,165,6.0,12.0,77,0.00,,,0.00,0,HR-IXPWINDi_r2_v1.2.,2013-04-15 04:47:00,
2013-04-15 00:52:00,54.9,47.8,29.97,SSE,161,9.0,12.0,77,0.00,,,0.00,0,HR-IXPWINDi_r2_v1.2.,2013-04-15 04:52:00,
2013-04-15 00:58:00,55.0,47.9,29.97,South,173,0.0,15.0,77,0.00,,,0.00,0,HR-IXPWINDi_r2_v1.2.,2013-04-15 04:58:00,
2013-04-15 01:03:00,55.0,47.9,29.97,SSE,166,4.0,15.0,77,0.00,,,0.00,0,HR-IXPWINDi_r2_v1.2.,2013-04-15 05:03:00,
2013-04-15 01:08:00,54.9,48.1,29.97,SSE,153,0.0,13.0,78,0.00,,,0.00,0,HR-IXPWINDi_r2_v1.2.,2013-04-15 05:08:00,
2013-04-15 01:13:00,55.0,48.2,29.98,SE,138,0.0,12.0,78,0.00,,,0.00,0,HR-IXPWINDi_r2_v1.2.,2013-04-15 05:13:00,
2013-04-15 01:18:00,54.9,48.1,29.98,SE,134,7.0,9.0,78,0.00,,,0.00,0,HR-IXPWINDi_r2_v1.2.,2013-04-15 05:18:00,
2013-04-15 01:24:00,54.8,48.4,29.98,West,267,2.0,9.0,79,0.00,,,0.00,0,HR-IXPWINDi_r2_v1.2.,2013-04-15 05:24:00,
2013-04-15 01:29:00,54.8,48.7,29.98,SE,139,0.0,7.0,80,0.00,,,0.00,0,HR-IXPWINDi_r2_v1.2.,2013-04-15 05:29:00,
2013-04-15 01:34:00,54.3,48.5,29.98,South,175,4.0,7.0,81,0.00,,,0.00,0,HR-IXPWINDi_r2_v1.2.,2013-04-15 05:34:00,
2013-04-15 01:39:00,54.1,48.7,29.98,South,173,0.0,5.0,82,0.00,,,0.00,0,HR-IXPWINDi_r2_v1.2.,2013-04-15 05:39:00,
2013-04-15 01:44:00,54.1,49.0,29.98,South,178,0.0,6.0,83,0.00,,,0.00,0,HR-IXPWINDi_r2_v1.2.,2013-04-15 05:44:00,
2013-04-15 01:50:00,53.2,48.7,29.98,SW,217,2.0,6.0,85,0.00,,,0.00,0,HR-IXPWINDi_r2_v1.2.,2013-04-15 05:50:00,
2013-04-15 01:55:00,52.6,48.8,29.97,WNW,290,0.0,5.0,87,0.00,,,0.00,0,HR-IXPWINDi_r2_v1.2.,2013-04-15 05:55:00,
2013-04-15 02:00:00,52.2,49.0,29.97,NNW,339,4.0,5.0,89,0.00,,,0.00,0,HR-IXPWINDi_r2_v1.2.,2013-04-15 06:00:00,
2013-04-15 02:05:00,52.2,49.3,29.97,NW,313,5.0,7.0,90,0.00,,,0.01,0,HR-IXPWINDi_r2_v1.2.,2013-04-15 06:05:00,
2013-04-15 02:10:00,52.2,49.3,29.97,WNW,296,3.0,9.0,90,0.00,,,0.01,0,HR-IXPWINDi_r2_v1.2.,2013-04-15 06:10:00,
2013-04-15 02:16:00,52.4,49.8,29.96,NW,323,6.0,9.0,91,0.00,,,0.01,0,HR-IXPWINDi_r2_v1.2.,2013-04-15 06:16:00,
2013-04-15 02:21:00,52.5,49.9,29.96,North,5,1.0,8.0,91,0.00,,,0.01,0,HR-IXPWINDi_r2_v1.2.,2013-04-15 06:21:00,
2013-04-15 02:26:00,52.4,49.8,29.96,NNW,328,0.0,8.0,91,0.00,,,0.01,0,HR-IXPWINDi_r2_v1.2.,2013-04-15 06:26:00,
2013-04-15 02:31:00,52.3,50.0,29.96,NNW,328,0.0,4.0,92,0.00,,,0.01,0,HR-IXPWINDi_r2_v1.2.,2013-04-15 06:31:00,
2013-04-15 02:36:00,52.1,49.8,29.96,NNW,328,1.0,1.0,92,0.00,,,0.01,0,HR-IXPWINDi_r2_v1.2.,2013-04-15 06:36:00,
2013-04-15 02:42:00,52.0,49.7,29.96,SW,226,1.0,4.0,92,0.00,,,0.01,0,HR-IXPWINDi_r2_v1.2.,2013-04-15 06:42:00,
2013-04-15 02:47:00,51.9,49.9,29.96,SW,223,0.0,4.0,93,0.00,,,0.01,0,HR-IXPWINDi_r2_v1.2.,2013-04-15 06:47:00,
2013-04-15 02:52:00,52.0,50.0,29.96,SW,223,0.0,3.0,93,0.00,,,0.01,0,HR-IXPWINDi_r2_v1.2.,2013-04-15 06:52:00,
2013-04-15 02:57:00,52.8,50.8,29.95,SSE,155,6.0,9.0,93,0.00,,,0.01,0,HR-IXPWINDi_r2_v1.2.,2013-04-15 06:57:00,
2013-04-15 03:02:00,53.6,51.3,29.96,SW,229,0.0,10.0,92,0.00,,,0.01,0,HR-IXPWINDi_r2_v1.2.,2013-04-15 07:02:00,
2013-04-15 03:41:00,53.4,51.1,29.95,NW,323,0.0,5.0,92,0.00,,,0.01,0,HR-IXPWINDi_r2_v1.2.,2013-04-15 07:41:00,
2013-04-15 03:48:00,53.2,50.9,29.96,NW,323,0.0,3.0,92,0.00,,,0.01,0,HR-IXPWINDi_r2_v1.2.,2013-04-15 07:48:00,
2013-04-15 03:53:00,53.0,50.7,29.96,WSW,242,0.0,3.0,92,0.00,,,0.01,0,HR-IXPWINDi_r2_v1.2.,2013-04-15 07:53:00,
2013-04-15 03:58:00,52.9,50.6,29.96,WSW,242,0.0,3.0,92,0.00,,,0.01,0,HR-IXPWINDi_r2_v1.2.,2013-04-15 07:58:00,
2013-04-15 04:03:00,52.7,50.7,29.96,WNW,293,0.0,4.0,93,0.00,,,0.01,0,HR-IXPWINDi_r2_v1.2.,2013-04-15 08:03:00,
2013-04-15 04:08:00,52.5,50.5,29.96,SSW,206,0.0,4.0,93,0.00,,,0.01,0,HR-IXPWINDi_r2_v1.2.,2013-04-15 08:08:00,
2013-04-15 04:13:00,52.4,50.4,29.96,SSW,206,2.0,4.0,93,0.00,,,0.02,0,HR-IXPWINDi_r2_v1.2.,2013-04-15 08:13:00,
2013-04-15 04:19:00,52.3,50.6,29.96,SSW,206,0.0,4.0,94,0.00,,,0.02,0,HR-IXPWINDi_r2_v1.2.,2013-04-15 08:19:00,
2013-04-15 04:24:00,52.3,50.6,29.96,SSW,206,0.0,4.0,94,0.00,,,0.02,0,HR-IXPWINDi_r2_v1.2.,2013-04-15 08:24:00,
2013-04-15 04:29:00,52.2,50.5,29.96,SSW,206,0.0,3.0,94,0.00,,,0.02,0,HR-IXPWINDi_r2_v1.2.,2013-04-15 08:29:00,
2013-04-15 04:34:00,52.2,50.5,29.96,SSW,206,0.0,2.0,94,0.00,,,0.02,0,HR-IXPWINDi_r2_v1.2.,2013-04-15 08:34:00,
2013-04-15 04:40:00,52.2,50.5,29.95,SSW,206,0.0,1.0,94,0.00,,,0.02,0,HR-IXPWINDi_r2_v1.2.,2013-04-15 08:40:00,
2013-04-15 04:45:00,52.1,50.4,29.95,WNW,297,3.0,4.0,94,0.00,,,0.02,0,HR-IXPWINDi_r2_v1.2.,2013-04-15 08:45:00,
2013-04-15 04:50:00,52.1,50.6,29.96,WNW,297,0.0,4.0,95,0.00,,,0.02,0,HR-IXPWINDi_r2_v1.2.,2013-04-15 08:50:00,
2013-04-15 04:55:00,52.0,50.5,29.96,WNW,297,0.0,4.0,95,0.00,,,0.02,0,HR-IXPWINDi_r2_v1.2.,2013-04-15 08:55:00,
2013-04-15 05:01:00,52.0,50.5,29.96,WSW,255,3.0,3.0,95,0.00,,,0.02,0,HR-IXPWINDi_r2_v1.2.,2013-04-15 09:01:00,
2013-04-15 05:06:00,51.9,50.4,29.96,SSW,210,3.0,4.0,95,0.00,,,0.02,0,HR-IXPWINDi_r2_v1.2.,2013-04-15 09:06:00,
2013-04-15 05:11:00,51.8,50.3,29.96,SSW,209,3.0,4.0,95,0.00,,,0.02,0,HR-IXPWINDi_r2_v1.2.,2013-04-15 09:11:00,
2013-04-15 05:16:00,51.7,50.2,29.96,SSW,209,0.0,4.0,95,0.00,,,0.02,0,HR-IXPWINDi_r2_v1.2.,2013-04-15 09:16:00,
2013-04-15 05:21:00,51.6,50.1,29.96,SSW,209,0.0,3.0,95,0.00,,,0.02,0,HR-IXPWINDi_r2_v1.2.,2013-04-15 09:21:00,
2013-04-15 05:26:00,51.6,50.1,29.96,SW,221,0.0,2.0,95,0.00,,,0.02,0,HR-IXPWINDi_r2_v1.2.,2013-04-15 09:26:00,
2013-04-15 05:32:00,51.7,50.5,29.96,WNW,282,0.0,3.0,96,0.00,,,0.02,0,HR-IXPWINDi_r2_v1.2.,2013-04-15 09:32:00,
2013-04-15 05:37:00,51.7,50.5,29.96,WNW,282,2.0,3.0,96,0.00,,,0.02,0,HR-IXPWINDi_r2_v1.2.,2013-04-15 09:37:00,
2013-04-15 05:42:00,51.7,50.5,29.96,SW,215,0.0,5.0,96,0.00,,,0.02,0,HR-IXPWINDi_r2_v1.2.,2013-04-15 09:42:00,
2013-04-15 05:47:00,51.7,50.5,29.97,SSW,207,0.0,5.0,96,0.00,,,0.02,0,HR-IXPWINDi_r2_v1.2.,2013-04-15 09:47:00,
2013-04-15 05:52:00,51.7,50.5,29.97,SSW,207,0.0,4.0,96,0.00,,,0.02,0,HR-IXPWINDi_r2_v1.2.,2013-04-15 09:52:00,
2013-04-15 05:57:00,51.8,50.6,29.97,SSW,207,0.0,3.0,96,0.00,,,0.02,0,HR-IXPWINDi_r2_v1.2.,2013-04-15 09:57:00,
2013-04-15 06:03:00,51.8,50.6,29.98,SSW,207,1.0,2.0,96,0.00,,,0.02,0,HR-IXPWINDi_r2_v1.2.,2013-04-15 10:03:00,
2013-04-15 06:08:00,51.7,50.5,29.98,SSW,207,0.0,5.0,96,0.00,,,0.02,0,HR-IXPWINDi_r2_v1.2.,2013-04-15 10:08:00,
2013-04-15 06:13:00,51.7,50.5,29.98,SSE,159,0.0,6.0,96,0.00,,,0.02,0,HR-IXPWINDi_r2_v1.2.,2013-04-15 10:13:00,
2013-04-15 06:18:00,51.7,50.5,29.98,SSE,159,0.0,6.0,96,0.00,,,0.02,0,HR-IXPWINDi_r2_v1.2.,2013-04-15 10:18:00,
2013-04-15 06:23:00,51.7,50.5,29.98,SSE,159,0.0,4.0,96,0.00,,,0.02,0,HR-IXPWINDi_r2_v1.2.,2013-04-15 10:23:00,
2013-04-15 06:29:00,51.7,50.5,29.98,SSE,159,0.0,2.0,96,0.00,,,0.02,0,HR-IXPWINDi_r2_v1.2.,2013-04-15 10:29:00,
2013-04-15 06:34:00,51.7,50.5,29.99,SSE,159,0.0,2.0,96,0.00,,,0.02,0,HR-IXPWINDi_r2_v1.2.,2013-04-15 10:34:00,
2013-04-15 06:39:00,51.8,50.6,29.99,SSE,159,0.0,1.0,96,0.00,,,0.02,0,HR-IXPWINDi_r2_v1.2.,2013-04-15 10:39:00,
2013-04-15 06:44:00,51.8,50.6,29.99,SSE,159,0.0,0.0,96,0.00,,,0.02,0,HR-IXPWINDi_r2_v1.2.,2013-04-15 10:44:00,
2013-04-15 06:50:00,51.8,50.6,29.99,SSE,159,0.0,1.0,96,0.00,,,0.02,0,HR-IXPWINDi_r2_v1.2.,2013-04-15 10:50:00,
2013-04-15 06:55:00,51.9,50.7,29.98,SSE,159,0.0,2.0,96,0.00,,,0.02,0,HR-IXPWINDi_r2_v1.2.,2013-04-15 10:55:00,
2013-04-15 07:00:00,52.0,50.8,29.98,SSE,159,0.0,2.0,96,0.00,,,0.02,0,HR-IXPWINDi_r2_v1.2.,2013-04-15 11:00:00,
2013-04-15 07:05:00,51.9,50.7,29.98,NNW,337,3.0,5.0,96,0.00,,,0.02,5,HR-IXPWINDi_r2_v1.2.,2013-04-15 11:05:00,
2013-04-15 07:11:00,52.0,50.8,29.98,North,360,1.0,6.0,96,0.00,,,0.02,11,HR-IXPWINDi_r2_v1.2.,2013-04-15 11:11:00,
2013-04-15 07:16:00,52.2,51.0,29.98,North,5,2.0,6.0,96,0.00,,,0.02,12,HR-IXPWINDi_r2_v1.2.,2013-04-15 11:16:00,
2013-04-15 07:21:00,51.9,50.4,29.99,NNE,13,0.0,4.0,95,0.00,,,0.02,18,HR-IXPWINDi_r2_v1.2.,2013-04-15 11:21:00,
2013-04-15 07:27:00,51.7,50.5,29.99,NNE,13,0.0,3.0,96,0.00,,,0.02,23,HR-IXPWINDi_r2_v1.2.,2013-04-15 11:27:00,
2013-04-15 07:32:00,51.9,50.7,30.00,NE,38,0.0,2.0,96,0.00,,,0.02,28,HR-IXPWINDi_r2_v1.2.,2013-04-15 11:32:00,
2013-04-15 07:37:00,51.9,50.7,30.00,NE,38,0.0,2.0,96,0.00,,,0.02,42,HR-IXPWINDi_r2_v1.2.,2013-04-15 11:37:00,
2013-04-15 07:43:00,52.2,51.0,30.00,NE,38,1.0,2.0,96,0.00,,,0.02,58,HR-IXPWINDi_r2_v1.2.,2013-04-15 11:43:00,
2013-04-15 07:48:00,52.4,51.2,30.00,South,189,3.0,5.0,96,0.00,,,0.02,53,HR-IXPWINDi_r2_v1.2.,2013-04-15 11:48:00,
2013-04-15 07:54:00,52.5,51.3,30.01,SSW,197,0.0,5.0,96,0.00,,,0.02,32,HR-IXPWINDi_r2_v1.2.,2013-04-15 11:54:00,
2013-04-15 07:59:00,52.6,51.4,30.01,SSW,199,3.0,5.0,96,0.00,,,0.02,33,HR-IXPWINDi_r2_v1.2.,2013-04-15 11:59:00,
2013-04-15 08:04:00,52.6,51.4,30.02,SSW,202,3.0,6.0,96,0.00,,,0.02,44,HR-IXPWINDi_r2_v1.2.,2013-04-15 12:04:00,
2013-04-15 08:09:00,52.7,51.5,30.02,South,169,1.0,6.0,96,0.00,,,0.02,49,HR-IXPWINDi_r2_v1.2.,2013-04-15 12:09:00,
2013-04-15 08:14:00,52.9,51.7,30.02,South,169,1.0,6.0,96,0.00,,,0.02,49,HR-IXPWINDi_r2_v1.2.,2013-04-15 12:14:00,
2013-04-15 08:19:00,53.1,51.9,30.02,South,169,0.0,4.0,96,0.00,,,0.02,60,HR-IXPWINDi_r2_v1.2.,2013-04-15 12:19:00,
2013-04-15 08:25:00,53.4,52.2,30.02,South,169,0.0,4.0,96,0.00,,,0.02,58,HR-IXPWINDi_r2_v1.2.,2013-04-15 12:25:00,
2013-04-15 08:30:00,53.3,51.8,30.02,South,169,0.0,2.0,95,0.00,,,0.02,88,HR-IXPWINDi_r2_v1.2.,2013-04-15 12:30:00,
2013-04-15 08:35:00,53.4,51.9,30.02,South,169,0.0,2.0,95,0.00,,,0.02,93,HR-IXPWINDi_r2_v1.2.,2013-04-15 12:35:00,
2013-04-15 08:40:00,53.6,52.1,30.02,South,169,0.0,2.0,95,0.00,,,0.02,111,HR-IXPWINDi_r2_v1.2.,2013-04-15 12:40:00,
2013-04-15 08:45:00,53.8,52.3,30.02,South,171,4.0,4.0,95,0.00,,,0.02,100,HR-IXPWINDi_r2_v1.2.,2013-04-15 12:45:00,
2013-04-15 08:50:00,53.6,51.8,30.02,South,172,1.0,5.0,94,0.00,,,0.02,109,HR-IXPWINDi_r2_v1.2.,2013-04-15 12:50:00,
2013-04-15 08:55:00,53.7,51.9,30.02,South,173,0.0,5.0,94,0.00,,,0.02,158,HR-IXPWINDi_r2_v1.2.,2013-04-15 12:55:00,
2013-04-15 09:00:00,54.0,52.2,30.02,South,173,0.0,5.0,94,0.00,,,0.02,120,HR-IXPWINDi_r2_v1.2.,2013-04-15 13:00:00,
2013-04-15 09:05:00,54.3,52.5,30.02,South,173,0.0,5.0,94,0.00,,,0.02,127,HR-IXPWINDi_r2_v1.2.,2013-04-15 13:05:00,
2013-04-15 09:11:00,54.3,52.5,30.02,South,178,2.0,6.0,94,0.00,,,0.02,158,HR-IXPWINDi_r2_v1.2.,2013-04-15 13:11:00,
2013-04-15 09:16:00,54.6,52.8,30.03,South,182,3.0,6.0,94,0.00,,,0.02,176,HR-IXPWINDi_r2_v1.2.,2013-04-15 13:16:00,
2013-04-15 09:21:00,54.8,52.7,30.03,South,186,4.0,6.0,93,0.00,,,0.02,213,HR-IXPWINDi_r2_v1.2.,2013-04-15 13:21:00,
2013-04-15 09:27:00,55.1,53.0,30.03,SSW,197,2.0,5.0,93,0.00,,,0.02,422,HR-IXPWINDi_r2_v1.2.,2013-04-15 13:27:00,
2013-04-15 09:32:00,56.0,53.6,30.04,SSW,198,3.0,6.0,92,0.00,,,0.02,278,HR-IXPWINDi_r2_v1.2.,2013-04-15 13:32:00,
2013-04-15 09:37:00,56.2,53.5,30.03,South,186,3.0,7.0,91,0.00,,,0.02,292,HR-IXPWINDi_r2_v1.2.,2013-04-15 13:37:00,
2013-04-15 09:42:00,56.6,53.3,30.04,SSW,203,3.0,7.0,89,0.00,,,0.02,612,HR-IXPWINDi_r2_v1.2.,2013-04-15 13:42:00,
2013-04-15 09:48:00,56.8,53.5,30.04,SSW,198,3.0,7.0,89,0.00,,,0.02,260,HR-IXPWINDi_r2_v1.2.,2013-04-15 13:48:00,
2013-04-15 09:53:00,57.4,54.1,30.04,SSW,195,3.0,6.0,89,0.00,,,0.02,272,HR-IXPWINDi_r2_v1.2.,2013-04-15 13:53:00,
2013-04-15 09:58:00,57.3,53.7,30.04,South,186,2.0,6.0,88,0.00,,,0.02,322,HR-IXPWINDi_r2_v1.2.,2013-04-15 13:58:00,
2013-04-15 10:03:00,57.8,54.2,30.03,South,191,1.0,5.0,88,0.00,,,0.02,652,HR-IXPWINDi_r2_v1.2.,2013-04-15 14:03:00,
2013-04-15 10:08:00,58.1,53.9,30.03,SSW,194,0.0,7.0,86,0.00,,,0.02,652,HR-IXPWINDi_r2_v1.2.,2013-04-15 14:08:00,
2013-04-15 10:13:00,59.0,54.8,30.03,SSW,195,5.0,7.0,86,0.00,,,0.02,380,HR-IXPWINDi_r2_v1.2.,2013-04-15 14:13:00,
2013-04-15 10:19:00,59.0,54.8,30.03,SSW,207,0.0,6.0,86,0.00,,,0.02,304,HR-IXPWINDi_r2_v1.2.,2013-04-15 14:19:00,
2013-04-15 10:24:00,59.8,54.9,30.03,SSW,201,6.0,7.0,84,0.00,,,0.02,338,HR-IXPWINDi_r2_v1.2.,2013-04-15 14:24:00,
2013-04-15 10:29:00,59.0,54.4,30.03,South,189,0.0,7.0,85,0.00,,,0.02,297,HR-IXPWINDi_r2_v1.2.,2013-04-15 14:29:00,
2013-04-15 10:34:00,59.7,54.5,30.03,North,11,2.0,6.0,83,0.00,,,0.02,327,HR-IXPWINDi_r2_v1.2.,2013-04-15 14:34:00,
2013-04-15 10:39:00,60.4,54.8,30.04,South,189,0.0,5.0,82,0.00,,,0.02,262,HR-IXPWINDi_r2_v1.2.,2013-04-15 14:39:00,
2013-04-15 10:45:00,60.3,54.7,30.03,NNW,327,1.0,4.0,82,0.00,,,0.02,287,HR-IXPWINDi_r2_v1.2.,2013-04-15 14:45:00,
2013-04-15 10:50:00,60.7,54.8,30.03,NW,318,4.0,4.0,81,0.00,,,0.02,323,HR-IXPWINDi_r2_v1.2.,2013-04-15 14:50:00,
2013-04-15 10:55:00,60.5,54.6,30.04,SW,234,1.0,5.0,81,0.00,,,0.02,301,HR-IXPWINDi_r2_v1.2.,2013-04-15 14:55:00,
2013-04-15 11:00:00,59.8,53.9,30.04,SSW,196,1.0,7.0,81,0.00,,,0.02,285,HR-IXPWINDi_r2_v1.2.,2013-04-15 15:00:00,
2013-04-15 11:05:00,60.1,54.5,30.04,SSW,205,4.0,7.0,82,0.00,,,0.02,352,HR-IXPWINDi_r2_v1.2.,2013-04-15 15:05:00,
2013-04-15 11:10:00,60.1,54.2,30.04,South,176,4.0,5.0,81,0.00,,,0.02,376,HR-IXPWINDi_r2_v1.2.,2013-04-15 15:10:00,
2013-04-15 11:16:00,60.5,54.2,30.04,South,170,0.0,5.0,80,0.00,,,0.02,445,HR-IXPWINDi_r2_v1.2.,2013-04-15 15:16:00,
2013-04-15 11:21:00,62.1,55.1,30.03,South,169,4.0,4.0,78,0.00,,,0.02,468,HR-IXPWINDi_r2_v1.2.,2013-04-15 15:21:00,
2013-04-15 11:26:00,62.4,54.7,30.03,SE,130,4.0,5.0,76,0.00,,,0.02,541,HR-IXPWINDi_r2_v1.2.,2013-04-15 15:26:00,
2013-04-15 11:31:00,63.1,55.4,30.03,NNE,17,2.0,5.0,76,0.00,,,0.02,1090,HR-IXPWINDi_r2_v1.2.,2013-04-15 15:31:00,
2013-04-15 11:37:00,63.4,54.9,30.03,North,355,1.0,4.0,74,0.00,,,0.02,301,HR-IXPWINDi_r2_v1.2.,2013-04-15 15:37:00,
2013-04-15 11:42:00,63.5,54.6,30.04,WSW,248,2.0,7.0,73,0.00,,,0.02,304,HR-IXPWINDi_r2_v1.2.,2013-04-15 15:42:00,
2013-04-15 11:47:00,62.7,55.0,30.04,WSW,241,2.0,7.0,76,0.00,,,0.02,330,HR-IXPWINDi_r2_v1.2.,2013-04-15 15:47:00,
2013-04-15 11:52:00,62.7,54.6,30.04,SSW,213,2.0,7.0,75,0.00,,,0.02,318,HR-IXPWINDi_r2_v1.2.,2013-04-15 15:52:00,
2013-04-15 11:57:00,62.1,53.7,30.04,SSW,213,0.0,7.0,74,0.00,,,0.02,325,HR-IXPWINDi_r2_v1.2.,2013-04-15 15:57:00,
2013-04-15 12:02:00,62.8,54.3,30.04,SSW,213,0.0,7.0,74,0.00,,,0.02,308,HR-IXPWINDi_r2_v1.2.,2013-04-15 16:02:00,
2013-04-15 12:07:00,63.1,53.9,30.05,SSW,209,3.0,6.0,72,0.00,,,0.02,352,HR-IXPWINDi_r2_v1.2.,2013-04-15 16:07:00,
2013-04-15 12:13:00,62.5,52.9,30.04,SSW,205,0.0,6.0,71,0.00,,,0.02,315,HR-IXPWINDi_r2_v1.2.,2013-04-15 16:13:00,
2013-04-15 12:18:00,63.6,54.0,30.05,SSE,162,2.0,5.0,71,0.00,,,0.02,285,HR-IXPWINDi_r2_v1.2.,2013-04-15 16:18:00,
2013-04-15 12:23:00,64.0,54.0,30.04,SSE,153,2.0,5.0,70,0.00,,,0.02,250,HR-IXPWINDi_r2_v1.2.,2013-04-15 16:23:00,
2013-04-15 12:28:00,64.7,53.4,30.05,North,355,3.0,5.0,67,0.00,,,0.02,244,HR-IXPWINDi_r2_v1.2.,2013-04-15 16:28:00,
2013-04-15 12:33:00,64.0,54.0,30.05,North,355,4.0,6.0,70,0.00,,,0.02,227,HR-IXPWINDi_r2_v1.2.,2013-04-15 16:33:00,
2013-04-15 12:38:00,63.6,53.6,30.04,North,360,3.0,6.0,70,0.00,,,0.02,227,HR-IXPWINDi_r2_v1.2.,2013-04-15 16:38:00,
2013-04-15 12:44:00,64.4,53.6,30.04,NW,315,1.0,6.0,68,0.00,,,0.02,221,HR-IXPWINDi_r2_v1.2.,2013-04-15 16:44:00,
2013-04-15 12:49:00,63.7,53.7,30.04,WNW,303,0.0,6.0,70,0.00,,,0.02,213,HR-IXPWINDi_r2_v1.2.,2013-04-15 16:49:00,
2013-04-15 12:54:00,63.6,53.2,30.04,ESE,111,2.0,6.0,69,0.00,,,0.02,221,HR-IXPWINDi_r2_v1.2.,2013-04-15 16:54:00,
2013-04-15 12:59:00,64.1,53.7,30.04,ENE,63,0.0,6.0,69,0.00,,,0.02,265,HR-IXPWINDi_r2_v1.2.,2013-04-15 16:59:00,
2013-04-15 13:04:00,64.1,53.7,30.04,ENE,69,1.0,4.0,69,0.00,,,0.02,281,HR-IXPWINDi_r2_v1.2.,2013-04-15 17:04:00,
2013-04-15 13:10:00,64.8,53.5,30.04,SE,126,6.0,6.0,67,0.00,,,0.02,292,HR-IXPWINDi_r2_v1.2.,2013-04-15 17:10:00,
2013-04-15 13:15:00,64.7,53.4,30.04,ESE,122,5.0,7.0,67,0.00,,,0.02,283,HR-IXPWINDi_r2_v1.2.,2013-04-15 17:15:00,
2013-04-15 13:21:00,64.6,53.7,30.03,ESE,123,4.0,11.0,68,0.00,,,0.02,1216,HR-IXPWINDi_r2_v1.2.,2013-04-15 17:21:00,
2013-04-15 13:26:00,64.9,53.2,30.03,ESE,117,5.0,11.0,66,0.00,,,0.02,230,HR-IXPWINDi_r2_v1.2.,2013-04-15 17:26:00,
2013-04-15 13:31:00,65.5,53.8,30.03,NNE,21,2.0,9.0,66,0.00,,,0.02,221,HR-IXPWINDi_r2_v1.2.,2013-04-15 17:31:00,
2013-04-15 13:36:00,65.6,53.5,30.03,ESE,118,2.0,6.0,65,0.00,,,0.02,218,HR-IXPWINDi_r2_v1.2.,2013-04-15 17:36:00,
2013-04-15 13:42:00,65.2,54.3,30.03,SE,129,8.0,9.0,68,0.00,,,0.02,278,HR-IXPWINDi_r2_v1.2.,2013-04-15 17:42:00,
2013-04-15 13:47:00,64.6,53.7,30.03,SE,130,12.0,14.0,68,0.00,,,0.02,225,HR-IXPWINDi_r2_v1.2.,2013-04-15 17:47:00,
2013-04-15 13:52:00,64.8,54.3,30.03,ESE,122,8.0,14.0,69,0.00,,,0.02,302,HR-IXPWINDi_r2_v1.2.,2013-04-15 17:52:00,
2013-04-15 13:57:00,66.0,53.8,30.03,SE,132,4.0,12.0,65,0.00,,,0.02,970,HR-IXPWINDi_r2_v1.2.,2013-04-15 17:57:00,
2013-04-15 14:02:00,66.6,55.2,30.04,SE,134,7.0,13.0,67,0.00,,,0.02,960,HR-IXPWINDi_r2_v1.2.,2013-04-15 18:02:00,
2013-04-15 14:07:00,67.0,54.4,30.04,ESE,122,6.0,15.0,64,0.00,,,0.02,139,HR-IXPWINDi_r2_v1.2.,2013-04-15 18:07:00,
2013-04-15 14:12:00,65.6,53.5,30.04,SE,128,5.0,15.0,65,0.00,,,0.02,207,HR-IXPWINDi_r2_v1.2.,2013-04-15 18:12:00,
2013-04-15 14:29:00,65.8,53.7,30.04,South,185,5.0,11.0,65,0.00,,,0.02,223,HR-IXPWINDi_r2_v1.2.,2013-04-15 18:29:00,
2013-04-15 14:34:00,66.3,53.7,30.04,South,183,7.0,11.0,64,0.00,,,0.02,1085,HR-IXPWINDi_r2_v1.2.,2013-04-15 18:34:00,
2013-04-15 14:39:00,67.3,54.6,30.04,SE,127,5.0,10.0,64,0.00,,,0.02,1085,HR-IXPWINDi_r2_v1.2.,2013-04-15 18:39:00,
2013-04-15 14:44:00,66.8,53.7,30.04,SSE,152,8.0,12.0,63,0.00,,,0.02,295,HR-IXPWINDi_r2_v1.2.,2013-04-15 18:44:00,
2013-04-15 14:49:00,66.7,54.1,30.04,ESE,114,7.0,12.0,64,0.00,,,0.02,239,HR-IXPWINDi_r2_v1.2.,2013-04-15 18:49:00,
2013-04-15 14:54:00,67.9,54.3,30.04,SSE,148,0.0,10.0,62,0.00,,,0.02,246,HR-IXPWINDi_r2_v1.2.,2013-04-15 18:54:00,
2013-04-15 15:00:00,68.1,55.4,30.04,SE,137,6.0,12.0,64,0.00,,,0.02,828,HR-IXPWINDi_r2_v1.2.,2013-04-15 19:00:00,
2013-04-15 15:05:00,68.2,55.1,30.03,SSE,165,8.0,15.0,63,0.00,,,0.02,837,HR-IXPWINDi_r2_v1.2.,2013-04-15 19:05:00,
2013-04-15 15:11:00,67.9,55.2,30.03,ESE,121,6.0,15.0,64,0.00,,,0.02,842,HR-IXPWINDi_r2_v1.2.,2013-04-15 19:11:00,
2013-04-15 15:16:00,68.0,55.3,30.03,SE,138,8.0,14.0,64,0.00,,,0.02,861,HR-IXPWINDi_r2_v1.2.,2013-04-15 19:16:00,
2013-04-15 15:22:00,67.1,54.0,30.03,SE,146,6.0,18.0,63,0.00,,,0.02,156,HR-IXPWINDi_r2_v1.2.,2013-04-15 19:22:00,
2013-04-15 15:27:00,67.9,54.8,30.03,ESE,111,11.0,18.0,63,0.00,,,0.02,798,HR-IXPWINDi_r2_v1.2.,2013-04-15 19:27:00,
2013-04-15 15:32:00,68.5,55.8,30.02,ESE,105,5.0,16.0,64,0.00,,,0.02,758,HR-IXPWINDi_r2_v1.2.,2013-04-15 19:32:00,
2013-04-15 15:38:00,68.4,55.3,30.02,SE,138,12.0,16.0,63,0.00,,,0.02,745,HR-IXPWINDi_r2_v1.2.,2013-04-15 19:38:00,
2013-04-15 15:43:00,68.1,55.0,30.02,SE,134,7.0,16.0,63,0.00,,,0.02,752,HR-IXPWINDi_r2_v1.2.,2013-04-15 19:43:00,
2013-04-15 15:48:00,68.4,55.7,30.02,SE,128,12.0,16.0,64,0.00,,,0.02,759,HR-IXPWINDi_r2_v1.2.,2013-04-15 19:48:00,
2013-04-15 15:53:00,68.0,55.3,30.02,SSE,150,11.0,14.0,64,0.00,,,0.02,721,HR-IXPWINDi_r2_v1.2.,2013-04-15 19:53:00,
2013-04-15 15:57:00,67.9,55.2,30.02,SE,138,12.0,17.0,64,0.00,,,0.02,698,HR-IXPWINDi_r2_v1.2.,2013-04-15 19:57:00,
2013-04-15 16:02:00,67.8,54.7,30.02,SE,143,13.0,17.0,63,0.00,,,0.02,492,HR-IXPWINDi_r2_v1.2.,2013-04-15 20:02:00,
2013-04-15 16:07:00,67.3,55.1,30.02,ESE,123,11.0,18.0,65,0.00,,,0.02,666,HR-IXPWINDi_r2_v1.2.,2013-04-15 20:07:00,
2013-04-15 16:12:00,67.1,55.3,30.02,SE,124,11.0,18.0,66,0.00,,,0.02,656,HR-IXPWINDi_r2_v1.2.,2013-04-15 20:12:00,
2013-04-15 16:17:00,67.2,54.6,30.02,SE,134,8.0,19.0,64,0.00,,,0.02,643,HR-IXPWINDi_r2_v1.2.,2013-04-15 20:17:00,
2013-04-15 16:23:00,67.0,54.8,30.02,SE,132,13.0,19.0,65,0.00,,,0.02,628,HR-IXPWINDi_r2_v1.2.,2013-04-15 20:23:00,
2013-04-15 16:28:00,66.5,54.7,30.02,ESE,120,9.0,18.0,66,0.00,,,0.02,613,HR-IXPWINDi_r2_v1.2.,2013-04-15 20:28:00,
2013-04-15 16:33:00,66.1,54.8,30.03,SSE,164,10.0,20.0,67,0.00,,,0.02,603,HR-IXPWINDi_r2_v1.2.,2013-04-15 20:33:00,
2013-04-15 16:38:00,66.0,55.1,30.03,SSE,159,14.0,23.0,68,0.00,,,0.02,585,HR-IXPWINDi_r2_v1.2.,2013-04-15 20:38:00,
2013-04-15 16:43:00,65.6,54.3,30.03,South,171,20.0,23.0,67,0.00,,,0.02,570,HR-IXPWINDi_r2_v1.2.,2013-04-15 20:43:00,
2013-04-15 16:48:00,65.6,54.7,30.03,SSE,154,14.0,22.0,68,0.00,,,0.02,555,HR-IXPWINDi_r2_v1.2.,2013-04-15 20:48:00,
2013-04-15 16:54:00,65.0,54.9,30.03,SE,142,11.0,23.0,70,0.00,,,0.02,541,HR-IXPWINDi_r2_v1.2.,2013-04-15 20:54:00,
2013-04-15 16:59:00,64.8,54.7,30.03,SE,143,15.0,23.0,70,0.00,,,0.02,527,HR-IXPWINDi_r2_v1.2.,2013-04-15 20:59:00,
2013-04-15 17:04:00,64.8,54.7,30.03,SE,124,17.0,22.0,70,0.00,,,0.02,512,HR-IXPWINDi_r2_v1.2.,2013-04-15 21:04:00,
2013-04-15 17:09:00,64.9,54.8,30.03,SE,144,9.0,21.0,70,0.00,,,0.02,497,HR-IXPWINDi_r2_v1.2.,2013-04-15 21:09:00,
2013-04-15 17:14:00,65.9,55.8,30.03,SE,144,19.0,21.0,70,0.00,,,0.02,482,HR-IXPWINDi_r2_v1.2.,2013-04-15 21:14:00,
2013-04-15 17:19:00,65.1,54.6,30.03,ESE,123,7.0,21.0,69,0.00,,,0.02,464,HR-IXPWINDi_r2_v1.2.,2013-04-15 21:19:00,
2013-04-15 17:24:00,65.1,55.0,30.03,SE,130,9.0,21.0,70,0.00,,,0.02,448,HR-IXPWINDi_r2_v1.2.,2013-04-15 21:24:00,
2013-04-15 17:30:00,64.8,54.3,30.04,South,177,7.0,16.0,69,0.00,,,0.02,432,HR-IXPWINDi_r2_v1.2.,2013-04-15 21:30:00,
2013-04-15 17:35:00,64.3,54.2,30.04,SSE,151,15.0,19.0,70,0.00,,,0.02,415,HR-IXPWINDi_r2_v1.2.,2013-04-15 21:35:00,
2013-04-15 17:40:00,64.2,54.2,30.03,SSW,198,8.0,19.0,70,0.00,,,0.02,399,HR-IXPWINDi_r2_v1.2.,2013-04-15 21:40:00,
2013-04-15 17:45:00,64.2,54.5,30.04,ESE,123,6.0,19.0,71,0.00,,,0.02,381,HR-IXPWINDi_r2_v1.2.,2013-04-15 21:45:00,
2013-04-15 17:50:00,64.2,54.2,30.04,SE,138,10.0,15.0,70,0.00,,,0.02,364,HR-IXPWINDi_r2_v1.2.,2013-04-15 21:50:00,
2013-04-15 17:55:00,64.0,54.3,30.04,SE,142,8.0,15.0,71,0.00,,,0.02,343,HR-IXPWINDi_r2_v1.2.,2013-04-15 21:55:00,
2013-04-15 18:00:00,63.7,54.1,30.05,SSE,163,8.0,15.0,71,0.00,,,0.02,234,HR-IXPWINDi_r2_v1.2.,2013-04-15 22:00:00,
2013-04-15 18:05:00,63.4,53.8,30.05,SSE,148,6.0,15.0,71,0.00,,,0.02,72,HR-IXPWINDi_r2_v1.2.,2013-04-15 22:05:00,
2013-04-15 18:11:00,63.3,54.1,30.05,SE,146,10.0,14.0,72,0.00,,,0.02,109,HR-IXPWINDi_r2_v1.2.,2013-04-15 22:11:00,
2013-04-15 18:16:00,62.8,54.0,30.06,South,172,13.0,19.0,73,0.00,,,0.02,62,HR-IXPWINDi_r2_v1.2.,2013-04-15 22:16:00,
2013-04-15 18:21:00,62.3,53.8,30.06,SSE,150,7.0,19.0,74,0.00,,,0.02,63,HR-IXPWINDi_r2_v1.2.,2013-04-15 22:21:00,
2013-04-15 18:27:00,62.0,53.6,30.06,SE,129,8.0,18.0,74,0.00,,,0.02,76,HR-IXPWINDi_r2_v1.2.,2013-04-15 22:27:00,
2013-04-15 18:32:00,62.0,53.6,30.07,SSE,165,0.0,18.0,74,0.00,,,0.02,79,HR-IXPWINDi_r2_v1.2.,2013-04-15 22:32:00,
2013-04-15 18:37:00,62.3,53.5,30.06,SSW,195,3.0,11.0,73,0.00,,,0.02,47,HR-IXPWINDi_r2_v1.2.,2013-04-15 22:37:00,
2013-04-15 18:42:00,62.3,53.8,30.07,ESE,115,1.0,9.0,74,0.00,,,0.02,44,HR-IXPWINDi_r2_v1.2.,2013-04-15 22:42:00,
2013-04-15 18:48:00,61.9,53.5,30.07,South,187,5.0,9.0,74,0.00,,,0.02,63,HR-IXPWINDi_r2_v1.2.,2013-04-15 22:48:00,
2013-04-15 18:53:00,62.0,53.9,30.07,North,360,0.0,8.0,75,0.00,,,0.02,37,HR-IXPWINDi_r2_v1.2.,2013-04-15 22:53:00,
2013-04-15 18:58:00,62.1,53.7,30.07,SE,140,4.0,8.0,74,0.00,,,0.02,37,HR-IXPWINDi_r2_v1.2.,2013-04-15 22:58:00,
2013-04-15 19:03:00,62.0,53.6,30.08,SSW,201,0.0,7.0,74,0.00,,,0.02,39,HR-IXPWINDi_r2_v1.2.,2013-04-15 23:03:00,
2013-04-15 19:08:00,61.8,53.7,30.08,South,171,0.0,8.0,75,0.00,,,0.02,39,HR-IXPWINDi_r2_v1.2.,2013-04-15 23:08:00,
2013-04-15 19:13:00,61.8,53.4,30.08,SSE,151,0.0,8.0,74,0.00,,,0.02,28,HR-IXPWINDi_r2_v1.2.,2013-04-15 23:13:00,
2013-04-15 19:19:00,61.6,53.2,30.08,South,171,0.0,10.0,74,0.00,,,0.02,26,HR-IXPWINDi_r2_v1.2.,2013-04-15 23:19:00,
2013-04-15 19:24:00,61.4,53.3,30.08,South,180,2.0,10.0,75,0.00,,,0.02,25,HR-IXPWINDi_r2_v1.2.,2013-04-15 23:24:00,
2013-04-15 19:29:00,61.2,53.2,30.08,SSW,213,3.0,12.0,75,0.00,,,0.02,23,HR-IXPWINDi_r2_v1.2.,2013-04-15 23:29:00,
2013-04-15 19:34:00,61.1,53.1,30.08,WSW,240,0.0,12.0,75,0.00,,,0.02,19,HR-IXPWINDi_r2_v1.2.,2013-04-15 23:34:00,
2013-04-15 19:40:00,61.2,53.5,30.09,WSW,240,0.0,5.0,76,0.00,,,0.02,16,HR-IXPWINDi_r2_v1.2.,2013-04-15 23:40:00,
2013-04-15 19:45:00,61.4,53.3,30.09,West,260,4.0,4.0,75,0.00,,,0.02,12,HR-IXPWINDi_r2_v1.2.,2013-04-15 23:45:00,
2013-04-15 19:50:00,61.0,53.3,30.10,NNW,340,2.0,4.0,76,0.00,,,0.02,11,HR-IXPWINDi_r2_v1.2.,2013-04-15 23:50:00,
2013-04-15 19:55:00,61.0,53.3,30.10,SW,215,0.0,4.0,76,0.00,,,0.02,5,HR-IXPWINDi_r2_v1.2.,2013-04-15 23:55:00,
2013-04-15 20:00:00,61.2,53.2,30.10,SW,230,0.0,4.0,75,0.00,,,0.02,0,HR-IXPWINDi_r2_v1.2.,2013-04-16 00:00:00,
2013-04-15 20:06:00,61.8,53.7,30.10,WSW,240,0.0,3.0,75,0.00,,,0.02,0,HR-IXPWINDi_r2_v1.2.,2013-04-16 00:06:00,
2013-04-15 20:11:00,61.3,53.6,30.10,WSW,240,2.0,3.0,76,0.00,,,0.02,0,HR-IXPWINDi_r2_v1.2.,2013-04-16 00:11:00,
2013-04-15 20:16:00,60.9,53.2,30.10,NNW,336,0.0,4.0,76,0.00,,,0.02,0,HR-IXPWINDi_r2_v1.2.,2013-04-16 00:16:00,
2013-04-15 20:21:00,61.0,53.3,30.11,ENE,65,0.0,5.0,76,0.00,,,0.02,0,HR-IXPWINDi_r2_v1.2.,2013-04-16 00:21:00,
2013-04-15 20:26:00,61.2,53.5,30.11,ENE,65,0.0,5.0,76,0.00,,,0.02,0,HR-IXPWINDi_r2_v1.2.,2013-04-16 00:26:00,
2013-04-15 20:31:00,61.3,53.6,30.11,ENE,65,0.0,1.0,76,0.00,,,0.02,0,HR-IXPWINDi_r2_v1.2.,2013-04-16 00:31:00,
2013-04-15 20:36:00,61.2,53.5,30.11,East,101,0.0,3.0,76,0.00,,,0.02,0,HR-IXPWINDi_r2_v1.2.,2013-04-16 00:36:00,
2013-04-15 20:41:00,61.1,53.4,30.11,SSE,152,4.0,6.0,76,0.00,,,0.02,0,HR-IXPWINDi_r2_v1.2.,2013-04-16 00:41:00,
2013-04-15 20:46:00,61.2,53.5,30.12,SSE,148,7.0,8.0,76,0.00,,,0.02,0,HR-IXPWINDi_r2_v1.2.,2013-04-16 00:46:00,
2013-04-15 20:52:00,61.2,53.5,30.12,ESE,119,2.0,11.0,76,0.00,,,0.02,0,HR-IXPWINDi_r2_v1.2.,2013-04-16 00:52:00,
2013-04-15 20:57:00,61.3,53.2,30.12,SE,136,5.0,11.0,75,0.00,,,0.02,0,HR-IXPWINDi_r2_v1.2.,2013-04-16 00:57:00,
2013-04-15 21:02:00,61.2,53.2,30.12,SSW,198,6.0,8.0,75,0.00,,,0.02,0,HR-IXPWINDi_r2_v1.2.,2013-04-16 01:02:00,
2013-04-15 21:08:00,61.3,53.2,30.12,SE,146,5.0,7.0,75,0.00,,,0.02,0,HR-IXPWINDi_r2_v1.2.,2013-04-16 01:08:00,
2013-04-15 21:13:00,61.4,53.3,30.12,SE,145,0.0,16.0,75,0.00,,,0.02,0,HR-IXPWINDi_r2_v1.2.,2013-04-16 01:13:00,
2013-04-15 21:18:00,61.4,53.3,30.12,East,97,0.0,16.0,75,0.00,,,0.02,0,HR-IXPWINDi_r2_v1.2.,2013-04-16 01:18:00,
2013-04-15 21:23:00,61.3,53.2,30.13,SE,132,4.0,11.0,75,0.00,,,0.02,0,HR-IXPWINDi_r2_v1.2.,2013-04-16 01:23:00,
2013-04-15 21:29:00,61.3,53.2,30.13,SE,124,2.0,11.0,75,0.00,,,0.02,0,HR-IXPWINDi_r2_v1.2.,2013-04-16 01:29:00,
2013-04-15 21:34:00,61.3,53.2,30.14,SE,138,0.0,11.0,75,0.00,,,0.02,0,HR-IXPWINDi_r2_v1.2.,2013-04-16 01:34:00,
2013-04-15 21:39:00,61.3,53.2,30.14,SSE,163,8.0,8.0,75,0.00,,,0.02,0,HR-IXPWINDi_r2_v1.2.,2013-04-16 01:39:00,
2013-04-15 21:44:00,61.3,53.2,30.14,SE,140,4.0,10.0,75,0.00,,,0.02,0,HR-IXPWINDi_r2_v1.2.,2013-04-16 01:44:00,
2013-04-15 21:50:00,61.4,53.3,30.14,ESE,117,0.0,10.0,75,0.00,,,0.02,0,HR-IXPWINDi_r2_v1.2.,2013-04-16 01:50:00,
2013-04-15 21:55:00,61.3,53.2,30.14,South,169,11.0,12.0,75,0.00,,,0.02,0,HR-IXPWINDi_r2_v1.2.,2013-04-16 01:55:00,
2013-04-15 22:00:00,61.4,53.3,30.14,ESE,107,4.0,12.0,75,0.00,,,0.02,0,HR-IXPWINDi_r2_v1.2.,2013-04-16 02:00:00,
2013-04-15 22:05:00,61.4,53.3,30.14,SSE,158,8.0,12.0,75,0.00,,,0.02,0,HR-IXPWINDi_r2_v1.2.,2013-04-16 02:05:00,
2013-04-15 22:10:00,61.4,53.3,30.14,South,175,0.0,12.0,75,0.00,,,0.02,0,HR-IXPWINDi_r2_v1.2.,2013-04-16 02:10:00,
2013-04-15 22:16:00,61.4,53.3,30.14,SE,134,13.0,13.0,75,0.00,,,0.02,0,HR-IXPWINDi_r2_v1.2.,2013-04-16 02:16:00,
2013-04-15 22:21:00,61.4,53.3,30.15,ESE,114,2.0,13.0,75,0.00,,,0.02,0,HR-IXPWINDi_r2_v1.2.,2013-04-16 02:21:00,
2013-04-15 22:26:00,61.3,53.6,30.15,SSE,153,5.0,17.0,76,0.00,,,0.02,0,HR-IXPWINDi_r2_v1.2.,2013-04-16 02:26:00,
2013-04-15 22:31:00,61.4,53.7,30.15,ESE,123,4.0,17.0,76,0.00,,,0.02,0,HR-IXPWINDi_r2_v1.2.,2013-04-16 02:31:00,
2013-04-15 22:36:00,61.4,53.3,30.15,SSE,161,1.0,11.0,75,0.00,,,0.02,0,HR-IXPWINDi_r2_v1.2.,2013-04-16 02:36:00,
2013-04-15 22:41:00,61.4,53.7,30.15,ESE,107,7.0,13.0,76,0.00,,,0.02,0,HR-IXPWINDi_r2_v1.2.,2013-04-16 02:41:00,
2013-04-15 22:46:00,61.5,53.8,30.15,SE,126,2.0,13.0,76,0.00,,,0.02,0,HR-IXPWINDi_r2_v1.2.,2013-04-16 02:46:00,
2013-04-15 22:52:00,61.4,53.7,30.15,SE,130,4.0,15.0,76,0.00,,,0.02,0,HR-IXPWINDi_r2_v1.2.,2013-04-16 02:52:00,
2013-04-15 22:57:00,61.4,53.7,30.16,SSE,161,0.0,15.0,76,0.00,,,0.02,0,HR-IXPWINDi_r2_v1.2.,2013-04-16 02:57:00,
2013-04-15 23:02:00,61.4,53.7,30.16,SE,130,6.0,13.0,76,0.00,,,0.02,0,HR-IXPWINDi_r2_v1.2.,2013-04-16 03:02:00,
2013-04-15 23:07:00,61.3,53.6,30.16,SSE,163,6.0,13.0,76,0.00,,,0.02,0,HR-IXPWINDi_r2_v1.2.,2013-04-16 03:07:00,
2013-04-15 23:12:00,61.2,53.5,30.16,SSE,150,6.0,13.0,76,0.00,,,0.02,0,HR-IXPWINDi_r2_v1.2.,2013-04-16 03:12:00,
2013-04-15 23:17:00,61.1,53.8,30.16,South,171,9.0,11.0,77,0.00,,,0.02,0,HR-IXPWINDi_r2_v1.2.,2013-04-16 03:17:00,
2013-04-15 23:23:00,61.1,53.8,30.16,SSW,203,7.0,12.0,77,0.00,,,0.02,0,HR-IXPWINDi_r2_v1.2.,2013-04-16 03:23:00,
2013-04-15 23:29:00,61.1,53.8,30.16,ESE,122,7.0,12.0,77,0.00,,,0.02,0,HR-IXPWINDi_r2_v1.2.,2013-04-16 03:29:00,
2013-04-15 23:34:00,61.0,53.7,30.16,ESE,119,2.0,11.0,77,0.00,,,0.02,0,HR-IXPWINDi_r2_v1.2.,2013-04-16 03:34:00,
2013-04-15 23:39:00,60.9,53.9,30.16,SE,141,8.0,11.0,78,0.00,,,0.02,0,HR-IXPWINDi_r2_v1.2.,2013-04-16 03:39:00,
2013-04-15 23:44:00,60.9,53.9,30.16,East,89,1.0,11.0,78,0.00,,,0.02,0,HR-IXPWINDi_r2_v1.2.,2013-04-16 03:44:00,
2013-04-15 23:49:00,60.9,53.9,30.16,South,169,4.0,11.0,78,0.00,,,0.02,0,HR-IXPWINDi_r2_v1.2.,2013-04-16 03:49:00,
2013-04-15 23:54:00,60.9,53.9,30.17,SE,146,0.0,11.0,78,0.00,,,0.02,0,HR-IXPWINDi_r2_v1.2.,2013-04-16 03:54:00,